Vertical_Velocity
-1 -1 -3 -3 -3 -3 -2 -0 -1 3 0 -1 -2 5 -1 3 1 -3 0 -1 5 2 -2 0 -2 1 -2 -2 -4 5 1 -2
-5 -1 -1 -2 -3 -2 -0 -1 -0 3 1 4 0 1 2 -1 -1 2 -0 0 -2 -2 2 2 -2 -3 -1 0 0 -0 -2 -0
-0 -2 -1 -3 -3 -2 -3 -3 -2 -1 -0 4 2 -1 3 6 1 -0 0 1 -0 2 -2 -3 -1 -3 0 2 -1 -2 -1 -1
-2 -2 -1 -2 -3 -2 1 1 5 4 2 -3 -2 -0 -10 -0 4 8 3 0 3 -2 2 -5 0 1 -2 1 -1 0 -2 3
-4 -2 -1 0 1 -1 -0 0 -2 -1 -1 1 3 5 7 2 1 -2 3 0 -0 -1 0 -0 -4 1 -0 -1 -2 1 4 -1
-3 -3 1 2 0 2 3 1 1 3 4 1 4 3 -2 -2 -1 2 2 1 1 1 -1 -2 -2 0 0 1 0 -0 1 2
-2 3 3 -0 1 -0 1 0 4 -1 -0 2 3 1 2 1 3 1 0 0 0 1 0 -0 1 1 1 2 -1 -0 -1 2
-4 -4 -5 3 -1 3 0 1 0 -1 0 2 -0 1 1 -0 1 1 0 1 0 5 4 4 2 -1 1 1 1 6 1 7
-6 2 -0 2 2 5 2 3 6 3 -1 -1 -1 6 2 3 2 1 3 4 5 2 2 2 1 -2 2 -1 -4 -0 1 -1
9 6 0 5 4 2 5 6 5 4 10 3 8 3 8 2 3 2 2 3 4 -0 1 -2 2 14 -2 9 -7 1 10 15
-0 4 5 2 -1 1 3 5 2 1 -0 -1 -0 0 2 4 -0 3 1 -1 -2 -1 0 -2 -3 -1 8 -3 -4 2 23 -5
2 1 2 0 3 4 0 -1 -3 -1 1 1 -0 -1 0 2 3 5 1 1 2 2 -1 -2 3 -2 -0 -2 -3 -4 9 10
-0 -1 -1 0 -0 1 2 4 5 1 1 -0 -3 -2 -1 -0 -2 -1 -0 4 2 -2 1 1 25 -0 0 -4 11 -3 8 5
-2 -1 -2 -2 -1 -1 -1 -1 -1 0 0 0 -2 -1 -2 -1 1 -1 2 -1 -4 5 8 3 5 -3 -3 1 -5 17 3 2
-1 3 1 2 -0 -2 -4 -5 -3 -2 -0 2 1 -0 -1 1 1 2 2 2 4 2 2 2 2 10 -4 15 7 2 1 3
5 4 3 -0 0 -0 -0 5 4 -2 -1 -1 1 1 1 3 -0 -0 1 0 1 0 -2 3 2 3 13 4 -4 -1 0 1
1 4 5 4 2 1 2 2 2 2 1 3 4 2 1 0 2 2 3 1 0 1 1 0 1 2 -2 -3 -1 -0 -0 0
-0 1 3 4 3 2 1 2 2 2 0 -0 0 0 -0 0 0 -1 -1 -2 -1 2 -1 -1 -2 -2 -1 -0 -2 1 2 0
-0 2 3 3 2 1 -1 -1 -1 -1 -1 -1 -2 -3 -2 -2 -0 -1 -2 -1 -2 -2 -1 -0 1 -1 0 0 -2 -1 -1 -0
Height
3126 3127 3129 3131 3132 3133 3135 3137 3140 3142 3144 3147 3149 3151 3154 3157 3159 3161 3163 3164 3165 3166 3166 3166 3165 3164 3164 3162 3162 3161 3160 3159
3129 3129 3130 3132 3133 3134 3136 3138 3141 3143 3145 3147 3149 3152 3155 3156 3158 3159 3161 3161 3162 3163 3162 3162 3161 3160 3159 3158 3157 3157 3156 3155
3128 3129 3131 3133 3134 3136 3138 3140 3141 3143 3145 3147 3150 3152 3153 3155 3156 3157 3157 3158 3158 3158 3158 3157 3156 3155 3154 3154 3154 3152 3151 3150
3127 3129 3130 3132 3133 3135 3136 3138 3140 3142 3145 3146 3148 3149 3151 3152 3153 3154 3154 3154 3154 3153 3153 3152 3152 3151 3151 3150 3149 3148 3145 3143
3126 3127 3128 3130 3132 3133 3135 3137 3139 3141 3142 3143 3145 3147 3148 3149 3150 3149 3150 3149 3148 3149 3148 3148 3147 3146 3145 3145 3144 3142 3139 3135
3124 3125 3127 3129 3131 3132 3133 3135 3137 3138 3140 3141 3142 3144 3145 3145 3145 3144 3144 3144 3144 3144 3143 3142 3141 3141 3140 3138 3137 3134 3133 3130
3122 3123 3125 3126 3128 3129 3130 3133 3135 3136 3137 3138 3139 3141 3141 3140 3140 3140 3140 3139 3138 3138 3137 3136 3136 3135 3133 3131 3129 3127 3125 3123
3117 3119 3121 3122 3124 3126 3128 3129 3131 3133 3133 3135 3136 3137 3137 3136 3136 3135 3134 3133 3132 3131 3130 3129 3128 3127 3126 3124 3122 3119 3116 3114
3110 3112 3116 3118 3121 3122 3124 3126 3127 3127 3129 3130 3130 3130 3130 3130 3130 3128 3127 3125 3125 3124 3122 3122 3121 3120 3119 3117 3115 3111 3108 3105
3104 3107 3109 3112 3114 3117 3119 3121 3122 3123 3124 3125 3124 3125 3125 3124 3122 3120 3119 3118 3118 3116 3116 3114 3113 3112 3112 3109 3106 3102 3099 3095
3100 3101 3103 3105 3107 3110 3113 3115 3116 3116 3118 3118 3118 3117 3117 3116 3115 3114 3112 3112 3111 3110 3108 3106 3106 3105 3102 3099 3097 3093 3089 3086
3097 3098 3099 3100 3103 3104 3107 3109 3110 3111 3112 3112 3112 3112 3111 3110 3109 3108 3107 3106 3105 3102 3100 3100 3098 3096 3094 3089 3086 3083 3079 3076
3095 3094 3096 3098 3099 3101 3104 3105 3106 3107 3106 3107 3106 3106 3106 3105 3103 3102 3101 3099 3097 3095 3094 3092 3090 3087 3085 3082 3075 3075 3072 3067
3093 3092 3093 3095 3097 3098 3100 3101 3101 3102 3102 3102 3101 3101 3100 3098 3097 3096 3094 3092 3088 3087 3087 3083 3080 3078 3075 3073 3072 3067 3062 3059
3091 3090 3091 3092 3093 3094 3095 3096 3096 3097 3097 3097 3096 3094 3093 3091 3090 3088 3087 3084 3083 3080 3079 3077 3072 3070 3067 3062 3061 3057 3055 3051
3086 3087 3088 3088 3089 3090 3090 3090 3091 3091 3091 3090 3089 3087 3085 3084 3082 3080 3078 3076 3073 3071 3069 3067 3065 3061 3059 3056 3053 3049 3046 3042
3080 3081 3083 3084 3084 3084 3086 3085 3086 3085 3083 3083 3081 3079 3077 3076 3074 3072 3070 3067 3065 3063 3061 3059 3056 3053 3050 3047 3044 3040 3036 3032
3074 3076 3077 3078 3078 3079 3079 3080 3079 3078 3077 3075 3072 3071 3069 3067 3065 3063 3060 3058 3056 3054 3051 3048 3045 3043 3040 3038 3034 3030 3026 3023
3067 3069 3070 3071 3072 3073 3073 3073 3072 3070 3069 3067 3065 3063 3061 3059 3056 3053 3051 3048 3046 3044 3042 3039 3037 3034 3031 3028 3024 3020 3016 3014